Welcome to Manning's Truck Brokerage, Inc.

Carriers > Available Loads


MANNING'S TRUCK BROKERAGE
AVAILABLE LOADS AS OF 10/26/2020 4:11:41 AM
DISPATCH: 800-228-2761

CONTACT DISPATCH FOR MORE INFORMATION

QTY TYPE F/P STARTING POINT DESTINATION POINT PICKUP WEIGHT LENGTH RATE COMMENT
1 VR F FLORENCE / AL OVERLAND PARK / KS 10/26/2020 30,000 # 48 ft 1200
1 VR F FLORENCE / AL KANSAS CITY / KS 10/26/2020 30,000 # 48 ft 1200
1 VR F FLORENCE / AL OVERLAND PARK / KS 10/27/2020 30,000 # 48 ft 1200
1 VR F FLORENCE / AL KANSAS CITY / KS 10/27/2020 30,000 # 48 ft 1200
1 V F SILOAM SPRINGS / AR GREENVILLE / SC 10/26/2020 45,000 # 48 ft 2100
1 V F FOWLER / CA SOUDERTON / PA 10/26/2020 45,000 # 48 ft 6600
1 V F HILMAR / CA SANTA ANA / CA 10/26/2020 30,000 # 48 ft 650
1 V F CHOWCHILLA / CA SALINAS / CA 10/26/2020 15,000 # 53 ft 500
1 V F HILMAR / CA SANTA ANA / CA 10/27/2020 30,000 # 48 ft 650
1 VR F FORT MORGAN / CO CARTHAGE / MO 10/29/2020 44,100 # 48 ft 800
1 VR F LYTTON / IA CAMBRIDGE / MD 10/26/2020 35,000 # 48 ft 3600
1 VR F LYTTON / IA SALISBURY / MD 10/26/2020 35,000 # 48 ft 3600
1 VR F REINBECK / IA LEOTI / KS 10/26/2020 44,000 # 48 ft 1700
1 VR F WATERLOO / IA LEOTI / KS 10/26/2020 44,000 # 48 ft 1700
1 VR F REINBECK / IA GARDEN CITY / KS 10/26/2020 44,000 # 48 ft 1700
1 VR F REINBECK / IA LEOTI / KS 10/27/2020 44,000 # 48 ft 1700
1 VR F WATERLOO / IA LEOTI / KS 10/27/2020 44,000 # 48 ft 1700
1 VR F REINBECK / IA GARDEN CITY / KS 10/27/2020 44,000 # 48 ft 1700
1 VR F CAMANCHE / IA UNION / NJ 10/28/2020 44,100 # 48 ft 3000
1 VR F AMERICAN FALLS / ID DALLAS / TX 10/26/2020 44,100 # 48 ft 2900
1 R F BURLEY / ID GREENWOOD / WI 10/27/2020 43,500 # 48 ft 3000
1 R F BURLEY / ID GREENWOOD / WI 10/30/2020 43,500 # 48 ft 3000
1 R F BURLEY / ID GREENWOOD / WI 11/2/2020 43,500 # 48 ft 3000
1 R F BURLEY / ID GREENWOOD / WI 11/3/2020 43,500 # 48 ft 3000
1 VR F CHICAGO HEIGHTS / IL NORTH LIBERTY / IA 10/27/2020 44,100 # 48 ft 625
1 VR F CHICAGO HEIGHTS / IL IOWA CITY / IA 10/27/2020 44,100 # 48 ft 625
1 VR F DECATUR / IL CARROLLTON / TX 10/30/2020 44,100 # 48 ft 1700
1 VR F DECATUR / IL DALLAS / TX 10/30/2020 44,100 # 48 ft 1700
1 VR F CHAMPAIGN / IL CARROLLTON / TX 10/30/2020 44,100 # 48 ft 1700
1 VR F LAFAYETTE / IN NORTH LIBERTY / IA 10/27/2020 44,100 # 48 ft 600
1 VR F LAFAYETTE / IN IOWA CITY / IA 10/27/2020 44,100 # 48 ft 600
1 VR F LAFAYETTE / IN IOWA CITY / IA 10/28/2020 44,100 # 48 ft 600
1 VR F LAFAYETTE / IN NORTH LIBERTY / IA 10/28/2020 44,100 # 48 ft 600
1 FSD F HUTCHINSON / KS ROCK PORT / MO 10/26/2020 44,000 # 48 ft 800
1 R F EDWARDSVILLE / KS NORTH PLATTE / NE 10/26/2020 43,500 # 53 ft 1500 LOAD 9PM DELIVER 10/27 5PM...
1 R F EDWARDSVILLE / KS BRUNDIDGE / AL 10/27/2020 43,500 # 53 ft 3000 LOAD AT 1:30PM DELIVER 10/29 5AM...
1 VR F OVERLAND PARK / KS OMAHA / NE 10/27/2020 44,000 # 48 ft 450 LOADS 2-4PM...
1 VR F KANSAS CITY / KS OMAHA / NE 10/27/2020 44,000 # 48 ft 450 LOADS 2-4PM...
1 R F EDWARDSVILLE / KS NEW CANEY / TX 10/28/2020 43,500 # 53 ft 2600 2 DROPS...DEL TEMPLE TX 10/29 9:30PM FINAL 10/30 3:20PM
1 VR F OVERLAND PARK / KS OMAHA / NE 10/30/2020 44,000 # 48 ft 450 LOADS 2-4PM...
1 VR F KANSAS CITY / KS OMAHA / NE 10/30/2020 44,000 # 48 ft 450 LOADS 2-4PM...
1 VR F NEW ORLEANS / LA DENVER / CO 10/27/2020 44,350 # 48 ft 2500 EXTRA DROP IN AURURA CO...
1 VR F GRAMERCY / LA NORTH LIBERTY / IA 10/28/2020 44,100 # 48 ft 1400
1 VR F NEW ORLEANS / LA IOWA CITY / IA 10/28/2020 44,100 # 48 ft 1450
1 VR F NEW ORLEANS / LA CAROL STREAM / IL 10/28/2020 44,100 # 48 ft 1400
1 VR F BATON ROUGE / LA NORTH LIBERTY / IA 10/28/2020 44,100 # 48 ft 1400
1 VR F NEW ORLEANS / LA CHICAGO / IL 10/28/2020 44,100 # 48 ft 1400
1 VR F NEW ORLEANS / LA NORTH LIBERTY / IA 10/28/2020 44,100 # 48 ft 1450
1 VR F GRAMERCY / LA CONCORDIA / MO 10/30/2020 44,100 # 48 ft 1200
1 VR F GRAMERCY / LA KANSAS CITY / MO 10/30/2020 44,100 # 48 ft 1200
1 VR F NEW ORLEANS / LA CONCORDIA / MO 10/30/2020 44,100 # 48 ft 1200
1 VR F SAINT CLAIR / MI CAROL STREAM / IL 10/27/2020 44,100 # 48 ft 800
1 VR F SAINT CLAIR / MI FARGO / ND 10/27/2020 43,250 # 48 ft 2000
1 VR F ALLENDALE / MI ASHTON / IL 10/28/2020 44,100 # 48 ft 600
1 VR F GRAND RAPIDS / MI ASHTON / IL 10/28/2020 44,100 # 48 ft 600
1 VR F ALLENDALE / MI ROCHELLE / IL 10/28/2020 44,100 # 48 ft 600
1 VR F SAINT CLAIR / MI CHICAGO / IL 10/29/2020 44,100 # 48 ft 750
1 VR F MELROSE / MN TINLEY PARK / IL 10/26/2020 44,100 # 48 ft 1150
1 VR F SAINT CLOUD / MN TINLEY PARK / IL 10/26/2020 44,100 # 48 ft 1150
1 V F SAVAGE / MN NEW HAMPTON / IA 10/26/2020 45,000 # 48 ft 400
1 V F SPRINGFIELD / MO TOLEDO / OH 10/26/2020 18,000 # 53 ft 1500
1 V F SPRINGFIELD / MO TOLEDO / OH 10/27/2020 18,000 # 53 ft 1500
1 V F SPRINGFIELD / MO TOLEDO / OH 10/28/2020 18,000 # 53 ft 1500
1 V F SPRINGFIELD / MO TOLEDO / OH 10/29/2020 18,000 # 53 ft 1500
1 V F FARGO / ND NEOSHO / MO 10/26/2020 45,000 # 48 ft 1600
1 R F FREMONT / NE FORT DODGE / IA 10/26/2020 43,500 # 53 ft 600
1 VR F SEWARD / NE TIPTON / IN 10/26/2020 43,000 # 48 ft 1600
1 VR F SEWARD / NE INDIANAPOLIS / IN 10/26/2020 43,000 # 48 ft 1600
1 R F FREMONT / NE FORT DODGE / IA 10/27/2020 43,500 # 53 ft 600
1 VR F WATERLOO / NE CLINTON / IL 10/28/2020 44,000 # 48 ft 1000
1 VR F OMAHA / NE CLINTON / IL 10/28/2020 44,000 # 48 ft 1000
1 V F DELPHOS / OH FLAGSTAFF / AZ 10/26/2020 45,000 # 48 ft 2700
1 VR F HERMISTON / OR JOHNSTON / IA 10/26/2020 44,500 # 48 ft 3100
1 VR F HERMISTON / OR DES MOINES / IA 10/26/2020 44,500 # 48 ft 3100
1 VR F HERMISTON / OR JOHNSTON / IA 10/26/2020 44,500 # 48 ft 3100
1 VR F HERMISTON / OR PERU / IL 10/26/2020 44,500 # 48 ft 3600
1 VR F HERMISTON / OR JOHNSTON / IA 10/26/2020 44,500 # 48 ft 3100
1 VR F HERMISTON / OR DES MOINES / IA 10/26/2020 44,500 # 48 ft 3100
1 VR F HERMISTON / OR JOHNSTON / IA 10/26/2020 44,500 # 48 ft 3100
1 VR F HERMISTON / OR PERU / IL 10/27/2020 44,500 # 48 ft 3600
1 R P HOUSTON / TX GLOUCESTER / MA 10/26/2020 3,086 # 4 ft 2000
1 VR F VAN HORN / TX RALSTON / NE 10/26/2020 45,000 # 48 ft 2500
1 VR F VAN HORN / TX OMAHA / NE 10/26/2020 45,000 # 48 ft 2500
1 VR F EL PASO / TX RALSTON / NE 10/26/2020 45,000 # 48 ft 2500
1 R P HOUSTON / TX GLOUCESTER / MA 10/27/2020 3,086 # 4 ft 2000
1 VR F OTHELLO / WA DYSART / IA 10/26/2020 43,000 # 48 ft 3850 HAS STOP IN HOMEDALE ID...
1 VR F OTHELLO / WA WATERLOO / IA 10/26/2020 43,000 # 48 ft 3850 HAS STOP IN HOMEDALE ID...
1 VF F DAVENPORT / WA CHOWCHILLA / CA 10/26/2020 45,100 # 53 ft 1500
1 VR F KENNEWICK / WA PERU / IL 10/26/2020 44,500 # 48 ft 3600
1 VR F CONNELL / WA JOHNSTON / IA 10/26/2020 44,500 # 48 ft 3100 SHIPPING HOURS 5:30 am to 3:30 pm...RECEIVING HOURS 7-3
1 VR F CONNELL / WA DES MOINES / IA 10/26/2020 44,500 # 48 ft 3100 SHIPPING HOURS 5:30 am to 3:30 pm...RECEIVING HOURS 7-3
1 VR F KENNEWICK / WA PERU / IL 10/27/2020 44,500 # 48 ft 3600
1 VR F OTHELLO / WA DYSART / IA 10/27/2020 43,000 # 48 ft 3850 HAS STOP IN HOMEDALE ID...
1 VR F OTHELLO / WA WATERLOO / IA 10/27/2020 43,000 # 48 ft 3850 HAS STOP IN HOMEDALE ID...
1 V F COCHRANE / WI VISALIA / CA 10/26/2020 45,000 # 48 ft 3500

©2020 Manning Truck Brokerage











© 2020 Manning's Truck Brokerage : : All Rights Reserved : : Tel 800.228.2761 : : info@mtbinc.com